Location: Moscow
(55.7500°N, 37.5830°E)
Time: 07:38:26
(UTC+03:00)

A-11 Canister half - Pass Details

Date: 07 December 2021
Orbit: 1524 x 1684 km, 47.3° (Epoch: 17 January)

Event Time Altitude Azimuth Distance (km) Brightness Sun altitude
Exits shadow 03:22:24 43° 130° (SE) 2,219 9.8 -43.1°
Drops below altitude 10° 03:29:13 10° 99° (E) 3,884 11.6 -42.2°
Sets 03:32:25 0° 94° (E) 4,851 12.3 -41.8°
